STARLINK-35174

Last updated on Tue Oct 14 2025 00:02:05 GMT+0000 (Coordinated Universal Time)

1 65615U 25207Z 25286.60480119 .00056411 00000+0 14367-2 0 9990 2 65615 97.6060 350.0252 0001269 22.6474 337.4827 15.39371066 5890

Satellite not in orbit

STARLINK-35174